TimeCDT,TemperatureF,Dew PointF,Humidity,Sea Level PressureIn,VisibilityMPH,Wind Direction,Wind SpeedMPH,Gust SpeedMPH,PrecipitationIn,Events,Conditions,WindDirDegrees,DateUTC
12:58 AM,61.9,35.6,38,29.92,10.0,ESE,4.6,-,N/A,,Overcast,110,2013-03-23 05:58:00
1:58 AM,60.8,37.8,42,29.92,10.0,Variable,1.2,-,N/A,,Overcast,0,2013-03-23 06:58:00
2:05 AM,60.8,37.4,42,29.91,10.0,East,4.6,-,N/A,,Light Drizzle,100,2013-03-23 07:05:00
2:14 AM,60.8,39.2,45,29.90,10.0,ESE,3.5,-,N/A,,Overcast,110,2013-03-23 07:14:00
2:22 AM,60.8,39.2,45,29.89,10.0,ESE,4.6,-,N/A,Rain,Light Rain,120,2013-03-23 07:22:00
2:33 AM,59.0,41.0,51,29.89,10.0,ESE,3.5,-,N/A,,Overcast,110,2013-03-23 07:33:00
2:58 AM,59.5,41.5,51,29.89,10.0,East,4.6,-,N/A,,Overcast,80,2013-03-23 07:58:00
3:58 AM,59.5,42.4,53,29.85,10.0,East,5.8,-,N/A,,Overcast,90,2013-03-23 08:58:00
4:58 AM,60.1,43.5,54,29.86,10.0,East,4.6,-,N/A,,Overcast,100,2013-03-23 09:58:00
5:33 AM,60.8,44.6,55,29.84,10.0,East,5.8,-,N/A,,Overcast,90,2013-03-23 10:33:00
5:58 AM,59.7,44.2,57,29.85,10.0,East,3.5,-,N/A,,Overcast,90,2013-03-23 10:58:00
6:35 AM,59.0,46.4,63,29.86,10.0,ESE,4.6,-,N/A,,Light Drizzle,120,2013-03-23 11:35:00
6:57 AM,59.0,48.2,67,29.86,10.0,ESE,2.3,-,N/A,,Overcast,120,2013-03-23 11:57:00
6:58 AM,58.5,47.7,67,29.87,10.0,SE,2.3,-,N/A,,Overcast,130,2013-03-23 11:58:00
7:43 AM,59.0,48.2,67,29.85,10.0,East,3.5,-,N/A,,Overcast,90,2013-03-23 12:43:00
7:58 AM,59.7,48.9,67,29.88,10.0,SE,3.5,-,N/A,,Overcast,140,2013-03-23 12:58:00
8:58 AM,62.4,54.7,76,29.87,10.0,SSE,10.4,-,N/A,,Overcast,150,2013-03-23 13:58:00
9:58 AM,65.5,57.9,77,29.85,10.0,SE,6.9,-,N/A,,Overcast,140,2013-03-23 14:58:00
10:23 AM,66.2,60.8,83,29.86,10.0,Variable,2.3,-,N/A,,Overcast,0,2013-03-23 15:23:00
10:58 AM,67.8,60.8,78,29.86,10.0,SE,2.3,-,N/A,,Overcast,130,2013-03-23 15:58:00
11:51 AM,69.8,62.6,78,29.84,10.0,East,3.5,-,N/A,,Light Drizzle,90,2013-03-23 16:51:00
11:58 AM,70.2,62.1,75,29.85,10.0,Variable,1.2,-,N/A,,Light Drizzle,0,2013-03-23 16:58:00
12:03 PM,69.8,62.6,78,29.83,10.0,Variable,2.3,-,N/A,,Overcast,0,2013-03-23 17:03:00
12:58 PM,71.8,63.9,76,29.82,10.0,ESE,5.8,-,N/A,,Overcast,120,2013-03-23 17:58:00
1:09 PM,69.8,64.4,83,29.80,10.0,Calm,Calm,-,N/A,,Light Drizzle,0,2013-03-23 18:09:00
1:40 PM,66.2,62.6,88,29.78,8.0,North,8.1,-,N/A,Rain-Thunderstorm,Light Thunderstorms and Rain,350,2013-03-23 18:40:00
1:46 PM,66.2,62.6,88,29.78,3.0,North,9.2,-,N/A,Rain-Thunderstorm,Heavy Thunderstorms and Rain,10,2013-03-23 18:46:00
1:51 PM,64.4,62.6,94,29.77,2.0,NNE,6.9,-,N/A,Rain-Thunderstorm,Heavy Thunderstorms and Rain,30,2013-03-23 18:51:00
1:56 PM,64.4,62.6,94,29.76,2.5,NE,5.8,-,N/A,Rain-Thunderstorm,Thunderstorms and Rain,40,2013-03-23 18:56:00
1:57 PM,64.4,62.6,94,29.76,2.5,NNE,5.8,-,N/A,Rain-Thunderstorm,Rain,30,2013-03-23 18:57:00
1:58 PM,64.4,62.6,94,29.77,2.5,NNE,5.8,-,N/A,Rain-Thunderstorm,Rain,30,2013-03-23 18:58:00
2:03 PM,64.4,62.6,94,29.76,4.0,NNE,5.8,-,N/A,Rain-Thunderstorm,Rain,20,2013-03-23 19:03:00
2:38 PM,64.4,62.6,94,29.79,10.0,Variable,3.5,-,N/A,,Light Drizzle,0,2013-03-23 19:38:00
2:52 PM,64.4,62.6,94,29.77,10.0,North,5.8,-,N/A,,Overcast,10,2013-03-23 19:52:00
2:58 PM,63.9,62.6,96,29.77,10.0,NE,5.8,-,N/A,,Overcast,50,2013-03-23 19:58:00
3:07 PM,64.4,62.6,94,29.76,10.0,NE,5.8,-,N/A,,Light Drizzle,50,2013-03-23 20:07:00
3:12 PM,64.4,62.6,94,29.75,8.0,NE,6.9,-,N/A,Rain,Light Rain,50,2013-03-23 20:12:00
3:17 PM,64.4,62.6,94,29.74,7.0,NE,8.1,-,N/A,Rain,Light Rain,40,2013-03-23 20:17:00
3:22 PM,62.6,62.6,100,29.74,8.0,ENE,8.1,-,N/A,Rain-Thunderstorm,Light Thunderstorms and Rain,70,2013-03-23 20:22:00
3:32 PM,62.6,62.6,100,29.75,1.5,East,5.8,-,N/A,Rain-Thunderstorm,Heavy Thunderstorms and Rain,90,2013-03-23 20:32:00
3:37 PM,62.6,62.6,100,29.77,0.5,Variable,2.3,-,N/A,Fog-Rain-Thunderstorm,Heavy Thunderstorms and Rain,0,2013-03-23 20:37:00
3:41 PM,62.6,62.6,100,29.77,0.5,Variable,2.3,-,N/A,Fog-Rain-Thunderstorm,Heavy Thunderstorms and Rain,0,2013-03-23 20:41:00
3:56 PM,62.6,62.6,100,29.73,1.0,ESE,8.1,-,N/A,Rain-Thunderstorm,Heavy Thunderstorms and Rain,110,2013-03-23 20:56:00
3:58 PM,62.6,62.6,100,29.74,1.2,ESE,6.9,-,N/A,Rain-Thunderstorm,Thunderstorms and Rain,110,2013-03-23 20:58:00
4:00 PM,62.6,62.6,100,29.72,2.0,East,6.9,-,N/A,Rain-Thunderstorm,Light Rain,80,2013-03-23 21:00:00
4:05 PM,62.6,62.6,100,29.72,5.0,East,8.1,-,N/A,Rain-Thunderstorm,Light Rain,80,2013-03-23 21:05:00
4:10 PM,64.4,62.6,94,29.74,9.0,ESE,8.1,-,N/A,Thunderstorm,Light Drizzle,110,2013-03-23 21:10:00
4:13 PM,64.4,62.6,94,29.74,9.0,ESE,8.1,-,N/A,Thunderstorm,Mostly Cloudy,110,2013-03-23 21:13:00
4:15 PM,64.4,62.6,94,29.74,10.0,East,5.8,-,N/A,Thunderstorm,Mostly Cloudy,100,2013-03-23 21:15:00
4:16 PM,64.4,62.6,94,29.74,10.0,Variable,5.8,-,N/A,Thunderstorm,Light Drizzle,0,2013-03-23 21:16:00
4:26 PM,64.4,62.6,94,29.75,10.0,Variable,4.6,-,N/A,,Mostly Cloudy,0,2013-03-23 21:26:00
4:58 PM,63.7,63.3,99,29.75,10.0,ENE,6.9,-,N/A,,Overcast,70,2013-03-23 21:58:00
5:58 PM,62.6,60.8,94,29.74,10.0,East,9.2,-,N/A,,Overcast,80,2013-03-23 22:58:00
6:13 PM,60.8,60.8,100,29.73,10.0,East,6.9,-,N/A,,Overcast,80,2013-03-23 23:13:00
6:58 PM,61.0,60.4,98,29.73,10.0,East,5.8,-,N/A,,Overcast,100,2013-03-23 23:58:00
6:59 PM,60.8,60.8,100,29.72,9.0,East,5.8,-,N/A,Rain,Light Rain,90,2013-03-23 23:59:00
7:15 PM,60.8,60.8,100,29.71,10.0,East,8.1,-,N/A,,Overcast,90,2013-03-24 00:15:00
7:32 PM,60.8,60.8,100,29.71,10.0,East,5.8,-,N/A,,Light Drizzle,90,2013-03-24 00:32:00
7:39 PM,60.8,60.8,100,29.70,10.0,East,6.9,-,N/A,,Overcast,100,2013-03-24 00:39:00
7:58 PM,60.3,59.9,99,29.71,10.0,East,6.9,-,N/A,,Overcast,90,2013-03-24 00:58:00
8:58 PM,60.4,60.1,99,29.70,10.0,Variable,5.8,-,N/A,,Overcast,0,2013-03-24 01:58:00
9:12 PM,60.8,60.8,100,29.69,10.0,ESE,4.6,-,N/A,,Light Drizzle,120,2013-03-24 02:12:00
9:37 PM,60.8,60.8,100,29.68,10.0,SE,4.6,-,N/A,,Overcast,140,2013-03-24 02:37:00
9:58 PM,61.2,60.8,99,29.68,10.0,SE,5.8,-,N/A,,Overcast,130,2013-03-24 02:58:00
10:29 PM,60.8,60.8,100,29.67,10.0,SE,5.8,-,N/A,Rain,Light Rain,140,2013-03-24 03:29:00
10:39 PM,62.6,60.8,94,29.66,10.0,SE,4.6,-,N/A,,Overcast,140,2013-03-24 03:39:00
10:42 PM,62.6,60.8,94,29.66,10.0,SSE,4.6,-,N/A,,Drizzle,150,2013-03-24 03:42:00
10:47 PM,62.6,62.6,100,29.65,10.0,SSE,4.6,-,N/A,,Light Drizzle,160,2013-03-24 03:47:00
10:53 PM,62.6,62.6,100,29.65,10.0,SSE,4.6,-,N/A,,Overcast,150,2013-03-24 03:53:00
10:55 PM,62.6,62.6,100,29.65,10.0,South,5.8,-,N/A,,Light Drizzle,170,2013-03-24 03:55:00
10:58 PM,62.6,62.6,100,29.66,10.0,SSE,5.8,-,N/A,,Light Drizzle,150,2013-03-24 03:58:00
11:38 PM,64.4,62.6,94,29.63,6.0,SSE,8.1,-,N/A,,Overcast,160,2013-03-24 04:38:00
11:58 PM,65.3,65.3,100,29.64,6.0,South,10.4,-,N/A,,Overcast,180,2013-03-24 04:58:00